Starlink 30705

operational
NORAD ID: 57945 Int'l Des: 2023-148 Owner: SPXS Country: US Constellation: starlink
LEOCIRCULAR

About Starlink 30705

Description loading...

Live Position

Loading 3D Globe...

Upcoming Passes

Altitude History

Altitude vs Time

uPlot chart will show altitude changes over time

Two-Line Element Set

1 57945U 23148L 25338.67342258 -.00003465 00000-0 -10505-3 0 9990
2 57945 53.1600 105.7208 0001070 79.2950 280.8171 15.30159324123871
Epoch: Dec 4, 2025 • Age: 33 hours

Current Status

Altitude 479.3 km
Velocity 7.63 km/s
Sub-Earth Point 44.80°N, 51.7°E
Launch Date Sep 25, 2023
Age 2.1 years
Type internet

Technical Details

Classification Payload
Mass 730.00 kg
Dry Mass 700.00 kg
Total Mass 730.00 kg
Length 0.30 m
Diameter 4.10 m
Span 29.00 m
Shape Box + pan
Manufacturer SPXS
Bus Type Starlink V2M
Phase Status In Orbit
Owner/State SPXS/US

Large Constellations

Loading constellations...